Change the Weather History Date:

Tuesday, July 16, 2013

  Actual Average Record
Temperature  
Mean Temperature 81 °F 82 °F  
Max Temperature 89 °F 91 °F 102 °F (2000)
Min Temperature 73 °F 73 °F 62 °F (1967)
Cooling Degree Days 16 17  
Month to date cooling degree days 232 270  
Year to date cooling degree days 1082 1159  
Since 1 June cooling degree days 718 714  
Growing Degree Days 31 (Base 50)    
Moisture  
Dew Point 71 °F    
Average Humidity 77    
Maximum Humidity 94    
Minimum Humidity 59    
Precipitation  
Precipitation 0.00 in 0.23 in 5.27 in (1931)
Month to date precipitation 6.97 3.72  
Year to date precipitation 39.62 36.67  
Sea Level Pressure  
Sea Level Pressure 30.15 in    
Wind  
Wind Speed 10 mph (East)    
Max Wind Speed 22 mph    
Max Gust Speed 28 mph    
Visibility 9 miles    
Events Thunderstorm    
T = Trace of Precipitation, MM = Missing Value Source: NWS Daily Summary

Daily Weather History Graph

Daily Weather History Graph

Search for Another Location

Airport or City:

Trip Planner

Search our weather history database for the weather conditions in past years. The results will help you decide how hot, cold, wet, or windy it might be!

Date:

Astronomy

Jul. 16, 2013 Rise Set
Actual Time 6:01 AM CDT 7:56 PM CDT
Civil Twilight 5:34 AM CDT 8:23 PM CDT
Nautical Twilight 5:01 AM CDT 8:56 PM CDT
Astronomical Twilight 4:26 AM CDT 9:31 PM CDT
Moon 1:47 PM CDT (7/16) 12:18 AM CDT (7/16)
Length of Visible Light 14h 49m
Length of Day
13h 55m
First Quarter, 56% of the Moon is Illuminated
Jul 16
First Quarter
Jul 22
Full
Jul 29
Last Quarter
Aug 6
New
Aug 14
First Quarter

Hourly Weather History & Observations

Time (CDT) Temp. Heat Index Dew Point Humidity Pressure Visibility Wind Dir Wind Speed Gust Speed Precip Events Conditions
12:56 AM 75.9 °F - 73.0 °F 91% 30.12 in 10.0 mi NE 8.1 mph - N/A   Scattered Clouds
1:56 AM 75.9 °F - 72.0 °F 87% 30.12 in 10.0 mi ENE 9.2 mph - N/A   Mostly Cloudy
2:10 AM 75.2 °F - 71.6 °F 89% 30.13 in 10.0 mi East 5.8 mph - N/A   Partly Cloudy
2:56 AM 73.9 °F - 70.0 °F 87% 30.12 in 10.0 mi ENE 9.2 mph - N/A   Clear
3:56 AM 73.0 °F - 69.1 °F 87% 30.11 in 10.0 mi NE 6.9 mph - N/A   Clear
4:56 AM 73.9 °F - 70.0 °F 87% 30.10 in 10.0 mi ENE 10.4 mph - N/A   Scattered Clouds
5:09 AM 73.4 °F - 69.8 °F 88% 30.11 in 10.0 mi ENE 9.2 mph - N/A   Mostly Cloudy
5:26 AM 73.4 °F - 69.8 °F 88% 30.13 in 10.0 mi ENE 6.9 mph - N/A   Mostly Cloudy
5:56 AM 73.9 °F - 70.0 °F 87% 30.12 in 7.0 mi ENE 10.4 mph - N/A   Overcast
6:56 AM 75.0 °F - 70.0 °F 84% 30.14 in 7.0 mi ENE 10.4 mph - N/A   Overcast
7:56 AM 75.9 °F - 71.1 °F 85% 30.15 in 7.0 mi ENE 10.4 mph - N/A   Overcast
8:08 AM 78.8 °F - 71.6 °F 78% 30.16 in 7.0 mi ENE 10.4 mph - N/A   Mostly Cloudy
8:56 AM 79.0 °F - 71.1 °F 77% 30.16 in 7.0 mi ENE 13.8 mph - N/A   Overcast
9:56 AM 82.0 °F 86.3 °F 71.1 °F 69% 30.17 in 7.0 mi East 12.7 mph - N/A   Overcast
10:56 AM 82.0 °F 86.3 °F 71.1 °F 69% 30.18 in 7.0 mi East 12.7 mph - N/A   Overcast
11:18 AM 84.2 °F 89.6 °F 71.6 °F 66% 30.18 in 7.0 mi ENE 12.7 mph - N/A   Mostly Cloudy
11:36 AM 82.4 °F 87.2 °F 71.6 °F 70% 30.18 in 7.0 mi East 15.0 mph 18.4 mph N/A   Mostly Cloudy
11:56 AM 86.0 °F 92.2 °F 72.0 °F 63% 30.17 in 7.0 mi East 15.0 mph 21.9 mph N/A   Mostly Cloudy
12:56 PM 86.0 °F 92.2 °F 72.0 °F 63% 30.16 in 7.0 mi East 13.8 mph - N/A   Mostly Cloudy
1:15 PM 84.2 °F 89.6 °F 71.6 °F 66% 30.16 in 7.0 mi East 16.1 mph 21.9 mph N/A   Mostly Cloudy
1:56 PM 88.0 °F 95.6 °F 73.0 °F 61% 30.15 in 10.0 mi East 12.7 mph 21.9 mph N/A   Mostly Cloudy
2:09 PM 87.8 °F 93.8 °F 71.6 °F 58% 30.16 in 10.0 mi East 17.3 mph 25.3 mph N/A   Mostly Cloudy
2:56 PM 88.0 °F 94.7 °F 72.0 °F 59% 30.14 in 10.0 mi ESE 16.1 mph 24.2 mph N/A   Mostly Cloudy
3:56 PM 88.0 °F 94.7 °F 72.0 °F 59% 30.14 in 10.0 mi East 15.0 mph 24.2 mph N/A   Mostly Cloudy
4:50 PM 87.8 °F 93.8 °F 71.6 °F 58% 30.15 in 10.0 mi SE 15.0 mph - N/A Thunderstorm Thunderstorm
4:56 PM 86.0 °F 92.2 °F 72.0 °F 63% 30.14 in 10.0 mi SE 17.3 mph 23.0 mph N/A Thunderstorm Thunderstorm
5:45 PM 87.8 °F 92.6 °F 69.8 °F 55% 30.15 in 10.0 mi ESE 13.8 mph - N/A   Scattered Clouds
5:56 PM 84.9 °F 88.8 °F 69.1 °F 59% 30.14 in 10.0 mi ESE 11.5 mph - N/A   Scattered Clouds
6:56 PM 82.9 °F 86.5 °F 69.1 °F 63% 30.15 in 10.0 mi ESE 13.8 mph - N/A   Mostly Cloudy
7:56 PM 81.0 °F 84.4 °F 70.0 °F 69% 30.17 in 10.0 mi SE 8.1 mph - N/A   Mostly Cloudy
8:56 PM 80.1 °F 83.6 °F 71.1 °F 74% 30.18 in 10.0 mi ESE 6.9 mph - N/A   Scattered Clouds
9:56 PM 79.0 °F - 72.0 °F 79% 30.19 in 10.0 mi East 3.5 mph - N/A   Scattered Clouds
10:56 PM 77.0 °F - 72.0 °F 84% 30.19 in 10.0 mi NNE 3.5 mph - N/A   Scattered Clouds
11:56 PM 75.0 °F - 71.1 °F 87% 30.20 in 10.0 mi NE 3.5 mph - N/A   Clear